No;Time;Interval(mi);Indoor Humidity(%);Indoor Temperature(�C);Outdoor Humidity(%);Outdoor Temperature(�C);Absolute Pressure(Hpa);Wind(m/s);Gust(m/s);Direction;Relative Pressure(Hpa);Dewpoint(�C);Windchill(�C);Total Rainfall(mm)
1;2019-03-01 00:02:00;15;47;18.9;78;10.8;1015.3;1.0;2.0;E;1018.5;7.1;10.8;93.6;
2;2019-03-01 00:17:00;15;47;18.9;79;10.7;1015.2;0.7;0.7;NW;1018.4;7.2;10.7;93.6;
3;2019-03-01 00:32:00;15;47;18.9;80;10.5;1015.0;0.3;0.7;S;1018.2;7.2;10.5;93.6;
4;2019-03-01 00:47:00;15;46;18.8;81;10.4;1014.8;0.7;1.0;E;1018.0;7.3;10.4;93.6;
5;2019-03-01 01:02:00;15;46;18.8;82;10.2;1014.7;1.7;3.1;W;1017.9;7.3;10.2;93.6;
6;2019-03-01 01:17:00;15;47;18.8;83;10.2;1014.8;0.7;1.0;W;1018.0;7.4;10.2;93.6;
7;2019-03-01 01:32:00;15;47;18.8;82;10.3;1014.8;1.4;1.7;NW;1018.0;7.4;10.3;93.6;
8;2019-03-01 01:47:00;15;47;18.9;83;10.0;1014.5;0.7;1.4;NW;1017.7;7.2;9.7;93.6;
9;2019-03-01 02:02:00;15;47;18.9;83;10.1;1014.0;1.0;1.7;W;1017.2;7.3;10.1;93.6;
10;2019-03-01 02:17:00;15;47;18.9;81;10.2;1013.9;1.7;2.7;S;1017.1;7.1;10.2;93.6;
11;2019-03-01 02:32:00;15;47;18.9;79;10.3;1013.8;0.3;1.0;SW;1017.0;6.8;10.3;93.6;
12;2019-03-01 02:46:59;15;47;18.9;78;10.3;1013.9;0.3;0.3;NW;1017.1;6.6;10.3;93.6;
13;2019-03-01 03:01:59;15;47;18.9;77;10.4;1013.6;0.7;1.0;NW;1016.8;6.5;10.4;93.6;
14;2019-03-01 03:17:00;15;47;18.8;76;10.4;1013.6;1.4;2.4;NW;1016.8;6.4;10.4;93.6;
15;2019-03-01 03:32:00;15;46;18.8;80;10.1;1013.7;1.0;2.0;W;1016.9;6.8;10.1;93.6;
16;2019-03-01 03:47:00;15;46;18.7;81;10.0;1013.5;0.7;1.4;W;1016.7;6.9;9.7;93.6;
17;2019-03-01 04:02:00;15;46;18.7;82;10.0;1013.6;0.3;1.0;NW;1016.8;7.1;10.0;93.6;
18;2019-03-01 04:17:00;15;47;18.7;81;10.1;1013.6;0.3;0.7;NNE;1016.8;7.0;10.1;93.6;
19;2019-03-01 04:32:00;15;47;18.7;84;9.8;1013.6;0.7;1.0;NW;1016.8;7.2;9.8;93.9;
20;2019-03-01 04:47:00;15;47;18.8;85;9.7;1013.6;1.0;2.4;E;1016.8;7.3;8.5;93.9;
21;2019-03-01 05:02:00;15;47;18.8;85;9.8;1013.5;0.3;1.0;NNW;1016.7;7.4;9.8;93.9;
22;2019-03-01 05:17:01;15;47;18.9;87;9.6;1013.3;0.3;1.0;SE;1016.5;7.5;9.6;93.9;
23;2019-03-01 05:32:01;15;47;18.8;87;9.6;1013.5;0.3;0.7;S;1016.7;7.5;9.6;93.9;
24;2019-03-01 05:47:01;15;47;18.8;89;9.6;1013.7;0.0;0.3;W;1016.9;7.9;9.6;93.9;
25;2019-03-01 06:02:01;15;47;18.8;90;9.6;1013.9;0.7;1.4;N;1017.1;8.0;9.3;93.9;
26;2019-03-01 06:17:01;15;47;18.8;89;9.7;1013.9;0.0;0.3;NW;1017.1;8.0;9.7;93.9;
27;2019-03-01 06:32:01;15;47;18.7;88;9.8;1013.9;0.3;1.7;NW;1017.1;7.9;9.2;93.9;
28;2019-03-01 06:47:01;15;47;18.7;88;9.8;1014.4;0.3;1.0;W;1017.6;7.9;9.8;93.9;
29;2019-03-01 07:02:01;15;47;18.7;88;9.8;1014.5;0.3;0.7;W;1017.7;7.9;9.8;93.9;
30;2019-03-01 07:17:01;15;48;18.7;90;9.7;1014.3;0.0;0.7;WNW;1017.5;8.1;9.7;94.2;
31;2019-03-01 07:32:01;15;48;18.7;90;9.8;1014.9;0.7;1.7;NW;1018.1;8.2;9.2;94.2;
32;2019-03-01 07:47:01;15;48;18.8;90;9.9;1014.8;0.3;0.7;NW;1018.0;8.3;9.9;94.5;
33;2019-03-01 08:02:01;15;48;18.8;90;10.0;1015.2;0.3;0.7;NW;1018.4;8.4;10.0;94.5;
34;2019-03-01 08:17:01;15;48;18.8;90;10.1;1014.9;0.3;1.0;W;1018.1;8.5;10.1;94.5;
35;2019-03-01 08:32:01;15;48;18.8;89;10.3;1015.1;0.0;0.3;W;1018.3;8.6;10.3;94.5;
36;2019-03-01 08:47:01;15;48;18.9;89;10.4;1015.1;0.7;1.0;NW;1018.3;8.7;10.4;94.8;
37;2019-03-01 09:02:01;15;48;18.8;90;10.5;1015.3;0.0;0.3;W;1018.5;8.9;10.5;94.8;
38;2019-03-01 09:17:01;15;48;18.8;90;10.6;1015.0;0.3;1.0;NW;1018.2;9.0;10.6;95.1;
39;2019-03-01 09:32:01;15;48;18.8;90;10.9;1015.5;0.0;0.7;E;1018.7;9.3;10.9;95.1;
40;2019-03-01 09:47:01;15;48;18.8;87;10.7;1015.7;1.4;1.7;W;1018.9;8.6;10.7;95.1;
41;2019-03-01 10:02:01;15;48;18.8;86;11.5;1015.7;1.4;2.0;NW;1018.9;9.2;11.5;95.1;
42;2019-03-01 10:17:01;15;49;18.9;82;11.5;1015.8;0.7;1.0;NW;1019.0;8.5;11.5;95.1;
43;2019-03-01 10:32:01;15;49;18.9;81;11.4;1015.7;0.7;1.0;NE;1018.9;8.3;11.4;95.1;
44;2019-03-01 10:47:01;15;49;18.9;81;11.8;1016.2;1.0;1.7;SE;1019.4;8.6;11.8;95.1;
45;2019-03-01 11:02:01;15;48;19.0;80;12.1;1015.9;0.0;0.3;W;1019.1;8.8;12.1;95.1;
46;2019-03-01 11:17:01;15;48;19.0;72;12.9;1016.0;0.3;1.0;NW;1019.2;8.0;12.9;95.1;
47;2019-03-01 11:32:01;15;48;19.0;72;12.7;1016.4;0.3;0.7;W;1019.6;7.8;12.7;95.1;
48;2019-03-01 11:47:01;15;48;19.1;71;13.2;1016.1;0.7;1.4;W;1019.3;8.1;13.2;95.1;
49;2019-03-01 12:02:01;15;48;19.1;67;14.5;1016.0;0.3;0.7;E;1019.2;8.4;14.5;95.1;
50;2019-03-01 12:17:01;15;48;19.1;67;13.8;1016.0;0.7;1.4;W;1019.2;7.8;13.8;95.1;
51;2019-03-01 12:32:01;15;47;19.0;70;12.8;1016.2;0.3;0.7;NW;1019.4;7.5;12.8;95.1;
52;2019-03-01 12:47:01;15;47;19.0;72;12.3;1016.3;0.0;0.3;WNW;1019.5;7.4;12.3;95.1;
53;2019-03-01 13:02:01;15;47;19.0;73;12.0;1016.4;1.0;1.7;W;1019.6;7.3;12.0;95.1;
54;2019-03-01 13:17:01;15;47;19.0;76;11.6;1016.5;1.0;2.0;W;1019.7;7.5;11.6;95.1;
55;2019-03-01 13:32:01;15;47;19.0;79;11.2;1016.7;0.7;1.4;W;1019.9;7.7;11.2;95.1;
56;2019-03-01 13:47:01;15;48;19.0;82;10.6;1016.9;0.7;1.4;SE;1020.1;7.7;10.6;95.1;
57;2019-03-01 14:02:01;15;48;19.0;85;10.3;1016.7;0.3;0.3;W;1019.9;7.9;10.3;95.4;
58;2019-03-01 14:17:01;15;48;19.0;87;10.4;1016.6;0.0;0.0;W;1019.8;8.3;10.4;95.4;
59;2019-03-01 14:32:01;15;48;19.0;88;10.8;1016.9;0.0;0.3;W;1020.1;8.9;10.8;95.4;
60;2019-03-01 14:47:01;15;48;19.0;86;11.4;1016.6;0.0;0.0;W;1019.8;9.1;11.4;95.4;
61;2019-03-01 15:02:01;15;48;19.1;84;11.4;1016.3;0.0;0.3;W;1019.5;8.8;11.4;95.4;
62;2019-03-01 15:17:01;15;48;19.1;83;11.6;1016.3;0.3;0.7;W;1019.5;8.8;11.6;95.4;
63;2019-03-01 15:32:01;15;48;19.0;81;11.8;1016.5;0.0;0.3;E;1019.7;8.6;11.8;95.4;
64;2019-03-01 15:47:01;15;48;19.0;80;11.7;1016.3;0.0;0.0;W;1019.5;8.4;11.7;95.4;
65;2019-03-01 16:02:01;15;48;19.0;80;11.6;1016.7;0.0;0.0;W;1019.9;8.3;11.6;95.4;
66;2019-03-01 16:17:01;15;48;19.0;80;11.4;1016.5;0.0;0.0;W;1019.7;8.1;11.4;95.4;
67;2019-03-01 16:32:01;15;48;19.0;78;11.3;1016.5;0.0;0.3;W;1019.7;7.6;11.3;95.4;
68;2019-03-01 16:47:01;15;48;19.0;78;11.2;1016.5;0.0;0.3;W;1019.7;7.5;11.2;95.4;
69;2019-03-01 17:02:01;15;48;19.0;78;11.1;1016.7;0.0;0.0;W;1019.9;7.4;11.1;95.4;
70;2019-03-01 17:17:01;15;48;19.0;78;11.0;1016.7;0.0;0.0;W;1019.9;7.3;11.0;95.4;
71;2019-03-01 17:32:01;15;48;19.0;78;10.9;1017.0;0.0;0.0;W;1020.2;7.2;10.9;95.4;
72;2019-03-01 17:47:01;15;48;19.0;76;11.1;1016.9;0.0;0.0;W;1020.1;7.0;11.1;95.4;
73;2019-03-01 18:02:01;15;48;19.0;75;11.1;1016.9;0.0;0.3;NW;1020.1;6.8;11.1;95.4;
74;2019-03-01 18:17:01;15;48;19.0;76;11.0;1017.2;0.0;0.0;NW;1020.4;6.9;11.0;95.4;
75;2019-03-01 18:32:01;15;47;19.0;76;11.0;1016.9;0.0;0.0;NW;1020.1;6.9;11.0;95.4;
76;2019-03-01 18:47:01;15;47;19.0;75;11.0;1017.2;0.3;0.7;SE;1020.4;6.7;11.0;95.4;
77;2019-03-01 19:02:01;15;47;19.0;76;11.0;1017.5;0.0;0.0;SE;1020.7;6.9;11.0;95.4;
78;2019-03-01 19:17:01;15;47;19.0;75;11.0;1017.3;0.0;0.3;W;1020.5;6.7;11.0;95.4;
79;2019-03-01 19:32:01;15;48;18.9;75;10.9;1017.2;0.0;0.7;ESE;1020.4;6.6;10.9;95.4;
80;2019-03-01 19:47:01;15;48;18.9;75;11.0;1017.1;0.0;0.0;NW;1020.3;6.7;11.0;95.4;
81;2019-03-01 20:02:01;15;47;19.0;75;11.0;1017.3;0.0;0.3;W;1020.5;6.7;11.0;95.4;
82;2019-03-01 20:17:01;15;47;19.0;76;10.9;1017.1;0.0;0.0;NW;1020.3;6.8;10.9;95.4;
83;2019-03-01 20:32:01;15;47;19.0;77;10.9;1017.1;0.0;0.3;W;1020.3;7.0;10.9;95.4;
84;2019-03-01 20:47:01;15;47;19.0;78;10.8;1017.1;0.0;0.0;NW;1020.3;7.1;10.8;95.4;
85;2019-03-01 21:02:01;15;47;19.0;78;10.7;1017.3;0.0;0.3;NNW;1020.5;7.0;10.7;95.4;
86;2019-03-01 21:17:01;15;47;19.0;78;10.7;1017.1;0.0;0.3;W;1020.3;7.0;10.7;95.4;
87;2019-03-01 21:32:01;15;47;19.0;78;10.7;1016.9;0.0;0.7;S;1020.1;7.0;10.7;95.4;
88;2019-03-01 21:47:01;15;47;19.0;78;10.7;1017.0;0.3;0.7;S;1020.2;7.0;10.7;95.4;
89;2019-03-01 22:02:01;15;48;18.9;78;10.6;1016.9;0.3;0.7;W;1020.1;6.9;10.6;95.4;
90;2019-03-01 22:17:01;15;48;18.9;79;10.6;1017.1;0.0;0.0;W;1020.3;7.1;10.6;95.4;
91;2019-03-01 22:32:01;15;48;18.9;79;10.6;1016.7;0.0;0.0;S;1019.9;7.1;10.6;95.4;
92;2019-03-01 22:47:01;15;48;18.9;79;10.5;1016.8;0.3;1.0;S;1020.0;7.0;10.5;95.4;
93;2019-03-01 23:02:01;15;48;18.9;79;10.5;1016.4;0.3;0.7;SE;1019.6;7.0;10.5;95.4;
94;2019-03-01 23:17:01;15;47;19.0;77;10.5;1016.1;0.0;0.3;E;1019.3;6.6;10.5;95.4;
95;2019-03-01 23:32:01;15;47;19.0;76;10.6;1016.0;0.0;0.3;W;1019.2;6.5;10.6;95.4;
96;2019-03-01 23:47:01;15;47;19.0;76;10.5;1015.8;0.7;1.4;NW;1019.0;6.4;10.5;95.4;
97;2019-03-02 00:02:01;15;47;19.0;78;10.4;1016.0;1.4;2.0;W;1019.2;6.7;10.4;95.4;
98;2019-03-02 00:17:01;15;47;19.0;79;10.3;1016.0;0.3;0.7;SW;1019.2;6.8;10.3;95.4;
99;2019-03-02 00:32:01;15;48;18.9;79;10.2;1015.7;0.0;0.7;S;1018.9;6.7;10.2;95.4;
100;2019-03-02 00:47:01;15;47;18.9;79;10.2;1015.7;0.3;0.7;SW;1018.9;6.7;10.2;95.4;
101;2019-03-02 01:02:01;15;47;18.9;77;10.1;1015.7;0.3;0.7;W;1018.9;6.3;10.1;95.4;
102;2019-03-02 01:17:01;15;47;18.9;77;10.1;1015.5;1.0;1.7;SSE;1018.7;6.3;10.1;95.4;
103;2019-03-02 01:32:01;15;48;18.9;77;9.9;1015.3;0.7;1.4;S;1018.5;6.1;9.6;95.4;
104;2019-03-02 01:47:01;15;48;18.9;76;9.9;1014.9;0.3;0.7;NW;1018.1;5.9;9.9;95.4;
105;2019-03-02 02:02:01;15;48;18.9;76;9.8;1014.9;0.7;1.0;S;1018.1;5.8;9.8;95.4;
106;2019-03-02 02:17:01;15;48;18.9;75;9.7;1014.6;0.3;0.7;NW;1017.8;5.5;9.7;95.4;
107;2019-03-02 02:32:01;15;48;18.9;75;9.7;1014.4;0.7;1.4;S;1017.6;5.5;9.4;95.4;
108;2019-03-02 02:47:01;15;47;18.9;74;9.6;1014.1;0.0;0.3;SE;1017.3;5.2;9.6;95.4;
109;2019-03-02 03:02:01;15;47;18.9;73;9.6;1013.7;1.0;1.4;E;1016.9;5.0;9.3;95.4;
110;2019-03-02 03:17:01;15;47;18.9;73;9.5;1013.5;0.0;0.3;W;1016.7;4.9;9.5;95.4;
111;2019-03-02 03:32:01;15;47;18.9;73;9.3;1013.3;0.3;0.7;NW;1016.5;4.7;9.3;95.4;
112;2019-03-02 03:47:01;15;46;18.8;74;9.2;1013.2;0.7;1.0;NW;1016.4;4.8;9.2;95.4;
113;2019-03-02 04:02:01;15;46;18.7;74;9.1;1013.2;0.7;1.4;SW;1016.4;4.7;8.7;95.4;
114;2019-03-02 04:17:01;15;47;18.7;74;9.2;1013.0;0.7;1.4;SW;1016.2;4.8;8.8;95.4;
115;2019-03-02 04:32:01;15;47;18.7;74;9.2;1012.9;1.0;1.4;SW;1016.1;4.8;8.8;95.4;
116;2019-03-02 04:47:01;15;47;18.8;74;9.2;1012.4;0.3;1.0;SW;1015.6;4.8;9.2;95.4;
117;2019-03-02 05:01:59;15;46;18.8;73;9.2;1012.3;2.4;3.1;W;1015.5;4.6;7.5;95.4;
118;2019-03-02 05:16:59;15;46;18.8;75;9.1;1012.3;1.4;1.7;SW;1015.5;4.9;8.4;95.4;
119;2019-03-02 05:32:00;15;46;18.8;80;8.9;1012.2;0.7;1.4;W;1015.4;5.6;8.5;95.4;
120;2019-03-02 05:47:00;15;46;18.7;83;8.6;1011.9;0.3;1.0;SE;1015.1;5.9;8.6;95.4;
121;2019-03-02 06:02:00;15;46;18.7;85;8.4;1012.0;1.0;2.0;SE;1015.2;6.0;7.3;95.4;
122;2019-03-02 06:17:00;15;46;18.7;87;8.3;1011.9;1.0;1.7;W;1015.1;6.3;7.5;95.4;
123;2019-03-02 06:32:00;15;46;18.7;88;8.3;1011.6;2.4;3.4;E;1014.8;6.4;6.2;95.4;
124;2019-03-02 06:47:00;15;46;18.7;88;8.3;1011.6;1.7;3.4;SW;1014.8;6.4;6.2;95.4;
125;2019-03-02 07:02:00;15;47;18.7;89;8.3;1011.6;0.7;1.4;W;1014.8;6.6;7.8;95.7;
126;2019-03-02 07:17:00;15;47;18.7;89;8.3;1011.6;1.4;2.0;WSW;1014.8;6.6;7.2;95.7;
127;2019-03-02 07:32:00;15;47;18.7;90;8.4;1011.7;1.0;1.4;W;1014.9;6.9;7.9;95.7;
128;2019-03-02 07:47:00;15;47;18.7;90;8.6;1012.0;0.3;1.0;WNW;1015.2;7.1;8.6;95.7;
129;2019-03-02 08:02:00;15;47;18.7;90;8.8;1012.1;0.3;0.7;WNW;1015.3;7.3;8.8;95.7;
130;2019-03-02 08:17:00;15;47;18.7;90;9.0;1012.3;0.3;0.7;W;1015.5;7.4;9.0;95.7;
131;2019-03-02 08:32:00;15;47;18.7;90;9.1;1012.2;0.0;0.7;NW;1015.4;7.5;9.1;95.7;
132;2019-03-02 08:47:00;15;47;18.7;91;9.2;1012.2;0.7;1.0;WNW;1015.4;7.8;9.2;96.0;
133;2019-03-02 09:02:00;15;47;18.7;92;9.3;1012.1;0.0;0.3;E;1015.3;8.1;9.3;96.3;
134;2019-03-02 09:17:00;15;47;18.7;93;9.5;1012.3;0.7;1.0;SW;1015.5;8.4;9.5;96.6;
135;2019-03-02 09:32:00;15;48;18.7;93;9.8;1012.3;0.0;0.0;N;1015.5;8.7;9.8;96.6;
136;2019-03-02 09:47:00;15;48;18.7;93;10.3;1012.2;0.7;1.4;SW;1015.4;9.2;10.3;96.6;
137;2019-03-02 10:02:00;15;49;18.8;92;10.8;1012.4;0.3;0.7;W;1015.6;9.6;10.8;96.6;
138;2019-03-02 10:17:00;15;49;18.9;90;11.4;1012.5;0.3;1.0;N;1015.7;9.8;11.4;96.6;
139;2019-03-02 10:32:00;15;49;18.9;88;11.7;1012.4;0.0;0.3;W;1015.6;9.8;11.7;96.6;
140;2019-03-02 10:47:00;15;49;18.9;80;12.6;1012.6;0.7;1.0;NW;1015.8;9.2;12.6;96.6;
141;2019-03-02 11:02:00;15;49;18.9;79;12.2;1012.6;0.7;1.0;NW;1015.8;8.7;12.2;96.6;
142;2019-03-02 11:17:00;15;48;19.0;75;12.5;1012.7;0.0;0.3;WNW;1015.9;8.2;12.5;96.6;
143;2019-03-02 11:32:00;15;48;19.0;74;12.5;1012.8;0.3;0.7;SE;1016.0;8.0;12.5;96.6;
144;2019-03-02 11:47:00;15;48;19.0;72;13.1;1012.9;0.3;1.0;W;1016.1;8.2;13.1;96.6;
145;2019-03-02 12:02:00;15;48;19.0;71;12.6;1012.6;0.0;0.3;W;1015.8;7.5;12.6;96.6;
146;2019-03-02 12:17:00;15;48;19.0;71;13.0;1012.7;0.3;0.7;SW;1015.9;7.9;13.0;96.6;
147;2019-03-02 12:32:00;15;49;18.9;71;13.2;1012.7;0.3;0.7;NW;1015.9;8.1;13.2;96.6;
148;2019-03-02 12:47:00;15;49;18.9;67;14.1;1012.5;1.4;2.0;SE;1015.7;8.1;14.1;96.6;
149;2019-03-02 13:02:00;15;49;18.9;65;13.9;1012.7;0.3;0.7;W;1015.9;7.4;13.9;96.6;
150;2019-03-02 13:17:00;15;48;19.0;61;14.0;1012.9;1.0;2.0;W;1016.1;6.6;14.0;96.6;
151;2019-03-02 13:32:00;15;49;19.0;61;13.9;1012.6;0.3;0.7;W;1015.8;6.5;13.9;96.6;
152;2019-03-02 13:47:00;15;48;19.0;61;13.8;1012.4;0.3;0.7;W;1015.6;6.4;13.8;96.6;
153;2019-03-02 14:02:00;15;48;19.1;62;13.8;1012.6;0.0;0.7;N;1015.8;6.6;13.8;96.6;
154;2019-03-02 14:17:00;15;48;19.2;62;14.2;1012.6;0.0;0.7;W;1015.8;7.0;14.2;96.6;
155;2019-03-02 14:32:00;15;48;19.2;60;14.5;1012.4;0.0;0.3;SE;1015.6;6.8;14.5;96.6;
156;2019-03-02 14:47:00;15;48;19.2;58;14.2;1012.7;0.7;1.4;W;1015.9;6.1;14.2;96.6;
157;2019-03-02 15:02:00;15;48;19.2;58;13.8;1012.8;1.0;1.4;NW;1016.0;5.7;13.8;96.6;
158;2019-03-02 15:17:00;15;47;19.2;60;13.6;1012.7;0.3;0.7;WNW;1015.9;6.0;13.6;96.6;
159;2019-03-02 15:32:00;15;47;19.2;60;13.7;1012.6;1.0;1.4;SW;1015.8;6.1;13.7;96.6;
160;2019-03-02 15:47:00;15;47;19.2;60;13.6;1012.6;0.0;0.3;NW;1015.8;6.0;13.6;96.6;
161;2019-03-02 16:02:00;15;46;19.0;60;13.5;1012.8;0.3;0.7;W;1016.0;5.9;13.5;96.6;
162;2019-03-02 16:17:00;15;46;19.0;59;13.3;1012.9;0.3;0.7;W;1016.1;5.5;13.3;96.6;
163;2019-03-02 16:32:00;15;46;19.0;61;13.0;1012.5;0.3;0.7;W;1015.7;5.7;13.0;96.6;
164;2019-03-02 16:47:00;15;47;19.0;61;13.1;1012.8;0.7;1.0;W;1016.0;5.7;13.1;96.6;
165;2019-03-02 17:02:00;15;47;19.0;61;12.8;1012.6;0.3;0.7;WNW;1015.8;5.5;12.8;96.6;
166;2019-03-02 17:17:00;15;46;18.7;63;12.4;1012.8;0.7;1.0;W;1016.0;5.6;12.4;96.6;
167;2019-03-02 17:32:00;15;48;18.8;66;12.0;1012.7;0.7;1.0;W;1015.9;5.8;12.0;96.6;
168;2019-03-02 17:47:00;15;48;18.9;69;11.8;1012.9;0.7;1.0;SW;1016.1;6.3;11.8;96.6;
169;2019-03-02 18:02:00;15;48;18.9;70;11.6;1012.7;0.3;0.7;SW;1015.9;6.3;11.6;96.6;
170;2019-03-02 18:17:00;15;48;18.9;70;11.4;1013.1;0.0;0.3;W;1016.3;6.1;11.4;96.6;
171;2019-03-02 18:32:00;15;47;18.5;71;11.2;1013.1;1.0;1.7;NE;1016.3;6.1;11.2;96.6;
172;2019-03-02 18:47:00;15;52;18.5;71;11.3;1013.0;0.7;1.0;SW;1016.2;6.2;11.3;96.6;
173;2019-03-02 19:02:00;15;54;18.6;72;11.4;1013.0;0.0;0.7;NE;1016.2;6.5;11.4;96.6;
174;2019-03-02 19:17:00;15;56;18.7;71;11.4;1012.7;0.7;1.0;SW;1015.9;6.3;11.4;96.6;
175;2019-03-02 19:32:00;15;53;18.7;71;11.3;1013.0;0.0;0.3;ESE;1016.2;6.2;11.3;96.6;
176;2019-03-02 19:47:00;15;54;18.8;71;11.2;1012.5;0.7;1.0;ENE;1015.7;6.1;11.2;96.6;
177;2019-03-02 20:02:00;15;55;19.0;71;10.9;1012.6;0.0;0.0;NW;1015.8;5.8;10.9;96.6;
178;2019-03-02 20:17:00;15;55;19.1;71;10.7;1012.9;0.3;1.0;W;1016.1;5.7;10.7;96.6;
179;2019-03-02 20:32:00;15;53;19.1;71;10.8;1012.8;1.4;2.4;W;1016.0;5.8;10.8;96.6;
180;2019-03-02 20:47:00;15;53;19.1;71;10.8;1012.9;0.7;1.4;W;1016.1;5.8;10.8;96.6;
181;2019-03-02 21:02:00;15;51;19.0;71;10.8;1012.6;2.4;4.1;SW;1015.8;5.8;10.8;96.6;
182;2019-03-02 21:17:00;15;52;18.7;71;10.9;1012.5;0.7;1.0;W;1015.7;5.8;10.9;96.6;
183;2019-03-02 21:32:00;15;52;18.7;71;10.7;1012.7;1.0;1.4;SSW;1015.9;5.7;10.7;96.6;
184;2019-03-02 21:47:00;15;52;18.7;72;10.8;1012.5;0.7;1.4;NW;1015.7;6.0;10.8;96.6;
185;2019-03-02 22:02:00;15;51;18.8;72;11.0;1012.5;0.7;1.4;W;1015.7;6.1;11.0;96.6;
186;2019-03-02 22:17:00;15;51;18.9;71;11.2;1012.1;1.7;2.4;WSW;1015.3;6.1;11.2;96.6;
187;2019-03-02 22:32:00;15;51;18.9;72;11.2;1012.5;0.7;1.4;W;1015.7;6.3;11.2;96.6;
188;2019-03-02 22:47:00;15;51;18.9;72;11.1;1012.1;0.0;0.3;S;1015.3;6.2;11.1;96.6;
189;2019-03-02 23:02:00;15;51;18.9;72;10.9;1012.2;0.3;1.0;NW;1015.4;6.1;10.9;96.6;
190;2019-03-02 23:17:00;15;50;18.9;72;11.0;1011.8;0.7;1.4;E;1015.0;6.1;11.0;96.6;
191;2019-03-02 23:32:00;15;50;18.9;73;10.9;1011.5;0.0;0.3;NW;1014.7;6.3;10.9;96.6;
192;2019-03-02 23:47:00;15;50;18.9;74;10.7;1011.6;1.0;1.7;W;1014.8;6.3;10.7;96.6;
193;2019-03-03 00:03:00;16;50;18.9;74;10.8;1011.9;1.4;2.0;WSW;1015.1;6.4;10.8;96.6;
194;2019-03-03 00:19:00;16;50;18.8;74;10.9;1011.8;0.7;1.7;WNW;1015.0;6.4;10.9;96.6;
195;2019-03-03 00:35:00;16;50;18.8;74;11.0;1011.4;2.4;3.4;W;1014.6;6.5;11.0;96.6;
196;2019-03-03 00:51:00;16;50;18.8;75;10.9;1011.4;1.4;2.0;NW;1014.6;6.6;10.9;96.6;
197;2019-03-03 01:06:00;15;50;18.9;75;10.9;1011.6;3.7;4.8;S;1014.8;6.6;10.9;96.6;
198;2019-03-03 01:21:00;15;50;18.9;75;10.8;1011.7;0.7;1.4;S;1014.9;6.5;10.8;96.6;
199;2019-03-03 01:36:00;15;50;18.9;76;10.8;1011.3;1.7;2.7;SW;1014.5;6.7;10.8;96.6;
200;2019-03-03 01:51:00;15;50;18.9;77;10.7;1011.3;1.0;1.7;W;1014.5;6.8;10.7;96.6;
201;2019-03-03 02:07:00;16;50;18.9;78;10.8;1011.2;1.0;1.7;N;1014.4;7.1;10.8;96.6;
202;2019-03-03 02:23:00;16;50;18.9;79;10.8;1010.6;2.0;3.1;SW;1013.8;7.3;10.8;96.6;
203;2019-03-03 02:39:00;16;50;18.9;80;10.8;1010.8;2.0;2.7;S;1014.0;7.5;10.8;96.6;
204;2019-03-03 02:55:00;16;50;18.8;80;10.9;1010.4;2.0;2.7;W;1013.6;7.6;10.9;96.6;
205;2019-03-03 03:11:00;16;50;18.8;81;10.9;1010.3;1.7;2.7;SW;1013.5;7.8;10.9;96.6;
206;2019-03-03 03:27:00;16;50;18.8;81;11.0;1010.1;2.4;3.1;SW;1013.3;7.9;11.0;96.6;
207;2019-03-03 03:42:00;15;50;18.8;81;11.1;1009.5;2.7;3.4;SW;1012.7;8.0;11.1;96.9;
208;2019-03-03 03:57:00;15;51;18.9;81;11.2;1009.4;3.1;5.1;WSW;1012.6;8.1;11.2;96.9;
209;2019-03-03 04:12:00;15;51;18.9;81;11.3;1009.5;1.0;2.4;SE;1012.7;8.2;11.3;96.9;
210;2019-03-03 04:27:00;15;51;18.9;81;11.3;1009.4;1.7;2.7;E;1012.6;8.2;11.3;96.9;
211;2019-03-03 04:43:00;16;51;18.9;81;11.3;1009.1;1.7;2.7;SE;1012.3;8.2;11.3;96.9;
212;2019-03-03 04:59:00;16;50;18.9;81;11.2;1009.1;1.7;2.7;SSW;1012.3;8.1;11.2;96.9;
213;2019-03-03 05:14:00;15;51;18.9;81;11.3;1008.8;2.7;3.7;NE;1012.0;8.2;11.3;96.9;
214;2019-03-03 05:28:59;15;51;18.9;81;11.3;1008.9;1.0;1.7;ESE;1012.1;8.2;11.3;96.9;
215;2019-03-03 05:43:59;15;51;18.8;81;11.3;1008.7;2.4;4.8;S;1011.9;8.2;11.3;96.9;
216;2019-03-03 05:59:00;15;51;18.8;81;11.4;1009.0;3.1;4.8;S;1012.2;8.3;11.4;96.9;
217;2019-03-03 06:15:00;16;51;18.8;81;11.5;1009.0;1.4;2.4;W;1012.2;8.4;11.5;96.9;
218;2019-03-03 06:31:00;16;51;18.9;81;11.5;1008.9;2.7;3.7;SW;1012.1;8.4;11.5;96.9;
219;2019-03-03 06:47:00;16;51;18.9;80;11.5;1008.9;2.7;4.1;S;1012.1;8.2;11.5;96.9;
220;2019-03-03 07:03:00;16;51;18.9;80;11.6;1008.9;2.4;3.7;SW;1012.1;8.3;11.6;96.9;
221;2019-03-03 07:19:00;16;51;18.9;80;11.7;1009.3;0.3;1.0;W;1012.5;8.4;11.7;96.9;
222;2019-03-03 07:34:00;15;51;18.9;80;11.7;1009.1;1.4;2.0;SW;1012.3;8.4;11.7;96.9;
223;2019-03-03 07:49:00;15;51;18.9;81;11.7;1009.0;1.7;2.4;W;1012.2;8.5;11.7;96.9;
224;2019-03-03 08:04:00;15;51;18.9;81;11.8;1008.8;2.0;2.7;SW;1012.0;8.6;11.8;96.9;
225;2019-03-03 08:19:00;15;51;18.9;81;11.9;1009.0;0.7;1.0;SE;1012.2;8.7;11.9;96.9;
226;2019-03-03 08:35:00;16;52;18.6;80;12.0;1008.9;2.7;3.7;SW;1012.1;8.7;12.0;96.9;
227;2019-03-03 08:51:00;16;55;18.5;79;12.3;1008.8;2.0;3.4;SE;1012.0;8.8;12.3;96.9;
228;2019-03-03 09:06:00;15;55;18.6;77;12.4;1008.8;2.0;3.4;S;1012.0;8.5;12.4;96.9;
229;2019-03-03 09:21:00;15;55;18.6;74;12.6;1008.7;2.0;2.7;E;1011.9;8.1;12.6;96.9;
230;2019-03-03 09:36:00;15;55;18.7;73;12.8;1008.4;1.0;2.0;W;1011.6;8.1;12.8;96.9;
231;2019-03-03 09:51:00;15;55;18.9;72;12.9;1008.7;1.0;2.0;SW;1011.9;8.0;12.9;96.9;
232;2019-03-03 10:06:00;15;55;19.0;72;12.9;1008.4;5.1;6.5;SW;1011.6;8.0;12.9;96.9;
233;2019-03-03 10:21:00;15;55;19.2;72;13.1;1008.0;1.4;2.0;W;1011.2;8.2;13.1;96.9;
234;2019-03-03 10:36:00;15;54;19.1;72;13.1;1008.0;1.4;2.0;SW;1011.2;8.2;13.1;96.9;
235;2019-03-03 10:51:00;15;54;19.1;72;13.3;1007.5;1.0;1.7;WSW;1010.7;8.4;13.3;96.9;
236;2019-03-03 11:06:00;15;54;19.2;71;13.4;1007.7;3.1;5.1;SW;1010.9;8.2;13.4;96.9;
237;2019-03-03 11:21:00;15;54;19.3;71;13.5;1007.1;2.0;3.1;S;1010.3;8.3;13.5;96.9;
238;2019-03-03 11:36:00;15;54;19.3;71;13.6;1007.3;1.7;4.1;SW;1010.5;8.4;13.6;96.9;
239;2019-03-03 11:51:00;15;54;19.3;71;13.7;1007.3;2.4;3.4;SE;1010.5;8.5;13.7;96.9;
240;2019-03-03 12:06:00;15;54;19.3;71;13.8;1007.2;1.4;2.0;NE;1010.4;8.6;13.8;96.9;
241;2019-03-03 12:21:00;15;54;19.2;70;14.4;1006.7;1.0;2.0;S;1009.9;9.0;14.4;96.9;
242;2019-03-03 12:36:00;15;54;19.2;69;14.4;1006.3;3.1;5.1;SE;1009.5;8.8;14.4;96.9;
243;2019-03-03 12:51:00;15;54;19.2;66;15.2;1006.3;2.4;3.1;S;1009.5;8.9;15.2;96.9;
244;2019-03-03 13:06:00;15;54;19.3;64;15.5;1005.6;1.4;2.4;E;1008.8;8.7;15.5;96.9;
245;2019-03-03 13:21:00;15;54;19.2;62;15.6;1005.3;2.7;4.1;SW;1008.5;8.3;15.6;96.9;
246;2019-03-03 13:36:00;15;57;19.3;60;15.4;1004.9;1.0;1.7;W;1008.1;7.7;15.4;96.9;
247;2019-03-03 13:51:00;15;57;19.3;62;15.4;1004.9;2.0;3.7;W;1008.1;8.2;15.4;96.9;
248;2019-03-03 14:06:00;15;56;19.3;64;15.5;1004.8;2.7;3.7;E;1008.0;8.7;15.5;96.9;
249;2019-03-03 14:21:00;15;56;19.3;64;15.2;1004.7;1.7;3.1;SE;1007.9;8.4;15.2;96.9;
250;2019-03-03 14:36:00;15;56;19.3;64;15.2;1003.9;2.0;3.1;W;1007.1;8.4;15.2;96.9;
251;2019-03-03 14:51:00;15;55;19.3;63;15.2;1003.9;2.0;4.1;SW;1007.1;8.2;15.2;96.9;
252;2019-03-03 15:06:00;15;55;19.2;62;15.2;1003.5;1.4;2.0;SE;1006.7;8.0;15.2;96.9;
253;2019-03-03 15:21:00;15;54;19.2;62;15.2;1003.1;1.0;2.0;SW;1006.3;8.0;15.2;96.9;
254;2019-03-03 15:36:00;15;54;19.2;62;15.2;1003.4;2.0;3.1;W;1006.6;8.0;15.2;96.9;
255;2019-03-03 15:51:00;15;54;19.2;62;15.2;1003.2;2.4;4.4;W;1006.4;8.0;15.2;96.9;
256;2019-03-03 16:06:00;15;54;19.2;64;15.1;1003.1;0.7;1.4;S;1006.3;8.3;15.1;96.9;
257;2019-03-03 16:21:00;15;54;19.3;65;15.0;1002.9;2.4;4.4;S;1006.1;8.5;15.0;96.9;
258;2019-03-03 16:36:00;15;54;19.4;65;14.9;1002.6;1.4;2.0;W;1005.8;8.4;14.9;96.9;
259;2019-03-03 16:51:00;15;54;19.5;66;14.9;1002.1;1.0;1.4;E;1005.3;8.6;14.9;96.9;
260;2019-03-03 17:06:00;15;54;19.3;64;15.0;1002.1;3.4;4.8;SE;1005.3;8.2;15.0;96.9;
261;2019-03-03 17:21:00;15;54;19.5;61;15.2;1001.9;2.4;3.4;S;1005.1;7.7;15.2;96.9;
262;2019-03-03 17:36:00;15;54;19.5;61;15.1;1002.0;2.0;3.7;WSW;1005.2;7.6;15.1;96.9;
263;2019-03-03 17:51:00;15;54;19.6;61;15.1;1001.5;1.7;2.7;SW;1004.7;7.6;15.1;96.9;
264;2019-03-03 18:06:00;15;53;19.5;60;15.0;1001.5;1.7;2.7;NW;1004.7;7.3;15.0;96.9;
265;2019-03-03 18:21:00;15;53;19.5;59;15.0;1001.5;2.4;5.4;SW;1004.7;7.1;15.0;96.9;
266;2019-03-03 18:36:00;15;53;19.5;59;14.9;1001.2;2.7;4.4;E;1004.4;7.0;14.9;96.9;
267;2019-03-03 18:51:00;15;53;19.5;60;14.7;1000.7;1.0;1.7;NW;1003.9;7.0;14.7;96.9;
268;2019-03-03 19:06:00;15;52;19.5;60;14.7;1000.8;2.7;3.4;S;1004.0;7.0;14.7;96.9;
269;2019-03-03 19:21:00;15;53;19.5;60;14.7;1000.5;1.7;2.4;W;1003.7;7.0;14.7;96.9;
270;2019-03-03 19:36:00;15;52;19.5;60;14.7;1000.4;1.0;2.4;SW;1003.6;7.0;14.7;96.9;
271;2019-03-03 19:51:00;15;54;19.5;59;14.8;1000.2;1.4;3.1;WSW;1003.4;6.9;14.8;96.9;
272;2019-03-03 20:06:00;15;54;19.6;59;14.8;1000.0;2.0;3.4;W;1003.2;6.9;14.8;96.9;
273;2019-03-03 20:21:00;15;54;19.6;61;14.5;999.5;4.1;5.4;W;1002.7;7.1;14.5;96.9;
274;2019-03-03 20:36:00;15;54;19.5;62;14.2;999.8;2.0;3.1;SW;1003.0;7.0;14.2;96.9;
275;2019-03-03 20:50:59;15;54;19.6;66;13.7;999.2;3.1;5.4;WNW;1002.4;7.5;13.7;96.9;
276;2019-03-03 21:05:59;15;54;19.6;68;13.5;999.1;2.0;3.7;E;1002.3;7.7;13.5;96.9;
277;2019-03-03 21:21:00;15;54;19.6;70;13.2;999.2;1.7;2.7;WNW;1002.4;7.8;13.2;96.9;
278;2019-03-03 21:36:00;15;54;19.5;73;12.7;999.2;2.0;4.4;S;1002.4;8.0;12.7;97.2;
279;2019-03-03 21:51:00;15;54;19.5;82;12.0;999.3;1.4;2.4;WNW;1002.5;9.0;12.0;97.8;
280;2019-03-03 22:06:00;15;54;19.5;85;11.7;998.8;4.4;7.8;WNW;1002.0;9.3;11.7;99.0;
281;2019-03-03 22:21:00;15;54;19.3;86;11.7;998.8;1.7;2.4;N;1002.0;9.4;11.7;99.0;
282;2019-03-03 22:36:00;15;54;19.3;82;11.9;998.6;2.7;4.4;W;1001.8;8.9;11.9;99.0;
283;2019-03-03 22:51:00;15;54;19.3;80;12.0;998.6;2.4;4.1;WNW;1001.8;8.7;12.0;99.0;
284;2019-03-03 23:06:00;15;54;19.4;80;11.8;998.1;2.0;2.7;S;1001.3;8.5;11.8;99.0;
285;2019-03-03 23:21:00;15;53;19.4;79;11.7;997.2;1.7;3.4;SW;1000.4;8.2;11.7;99.0;
286;2019-03-03 23:36:00;15;53;19.5;77;11.7;996.6;0.3;1.0;W;999.8;7.8;11.7;99.0;
287;2019-03-03 23:51:00;15;53;19.5;76;11.7;997.2;1.4;2.0;SW;1000.4;7.6;11.7;99.0;
288;2019-03-04 00:06:00;15;53;19.5;76;11.8;997.5;1.4;1.7;SE;1000.7;7.7;11.8;99.0;
289;2019-03-04 00:21:00;15;53;19.5;78;11.6;996.9;1.7;2.7;W;1000.1;7.9;11.6;99.0;
290;2019-03-04 00:36:00;15;53;19.5;81;11.3;995.7;5.1;6.8;W;998.9;8.2;11.3;99.6;